Redmond, OR

7:22 PM PST on November 11, 2019 (GMT -0800)
Roberts Field Airport

Weather History for KRDM - September, 2019

Change the Weather History Date:

Thursday, September 19, 2019

  Actual Average Record
Temperature  
Mean Temperature 56 °F 56 °F  
Max Temperature 66 °F 75 °F 95 °F (1999)
Min Temperature 46 °F 37 °F 24 °F (1983)
Degree Days  
Heating Degree Days 9 9  
Month to date heating degree days 81 131  
Since 1 July heating degree days 128 280  
Cooling Degree Days 0 0  
Month to date cooling degree days 37 14  
Year to date cooling degree days 293 220  
Growing Degree Days 5 (Base 50)    
Moisture  
Dew Point 44 °F    
Average Humidity 71    
Maximum Humidity 93    
Minimum Humidity 48    
Precipitation  
Precipitation 0.00 in 0.01 in 0.74 in (2010)
Month to date precipitation 1.20 0.25  
Year to date precipitation 8.66 5.98  
Sea Level Pressure  
Sea Level Pressure 30.02 in    
Wind  
Wind Speed 6 mph (NW)    
Max Wind Speed 16 mph    
Max Gust Speed 20 mph    
Visibility 10 miles    
Events      
T = Trace of Precipitation, MM = Missing Value Source: NWS Daily Summary

Daily Weather History Graph

Daily Weather History Graph

Search for Another Location

Airport or City:

Astronomy

Sep. 19, 2019 Rise Set
Actual Time 6:48 AM PDT 7:07 PM PDT
Civil Twilight 6:19 AM PDT 7:36 PM PDT
Nautical Twilight 5:44 AM PDT 8:10 PM PDT
Astronomical Twilight 5:09 AM PDT 8:45 PM PDT
Moon 10:08 PM PDT (9/19) 12:07 PM PDT (9/19)
Length of Visible Light 13h 17m
Length of Day
12h 19m
Waning Gibbous, 73% of the Moon is Illuminated
Sep 19
Waning Gibbous
Sep 21
Last Quarter
Sep 28
New
Oct 5
First Quarter
Oct 13
Full

Hourly Weather History & Observations

Time (PDT) Temp. Dew Point Humidity Pressure Visibility Wind Dir Wind Speed Gust Speed Precip Events Conditions
12:56 AM 48.9 °F 45.0 °F 86% 29.95 in 10.0 mi Calm Calm - N/A   Overcast
1:11 AM 48.9 °F 46.0 °F 90% 29.99 in 10.0 mi West 3.5 mph - N/A   Overcast
1:56 AM 48.9 °F 46.0 °F 90% 29.98 in 10.0 mi NW 3.5 mph - N/A   Overcast
2:03 AM 48.9 °F 46.0 °F 90% 30.00 in 10.0 mi NW 3.5 mph - N/A   Overcast
2:53 AM 48.2 °F 46.4 °F 93% 30.00 in 10.0 mi Calm Calm - N/A   Overcast
2:56 AM 48.9 °F 46.0 °F 90% 29.98 in 10.0 mi Calm Calm - N/A   Overcast
3:56 AM 48.9 °F 46.0 °F 90% 29.98 in 10.0 mi WNW 3.5 mph - N/A   Overcast
4:56 AM 48.9 °F 45.0 °F 86% 29.99 in 10.0 mi WNW 3.5 mph - N/A   Overcast
5:56 AM 46.9 °F 43.0 °F 86% 30.01 in 10.0 mi NNW 4.6 mph - N/A   Overcast
6:56 AM 46.9 °F 44.1 °F 90% 30.03 in 10.0 mi NW 4.6 mph - N/A   Overcast
7:56 AM 48.9 °F 45.0 °F 86% 30.05 in 10.0 mi WNW 3.5 mph - N/A   Overcast
8:31 AM 50.0 °F 45.0 °F 83% 30.07 in 10.0 mi NW 3.5 mph - N/A   Mostly Cloudy
8:56 AM 50.0 °F 45.0 °F 83% 30.06 in 10.0 mi NW 3.5 mph - N/A   Scattered Clouds
9:56 AM 54.0 °F 44.1 °F 69% 30.05 in 10.0 mi NNW 4.6 mph - N/A   Clear
10:33 AM 57.0 °F 44.1 °F 62% 30.06 in 10.0 mi Variable 4.6 mph - N/A   Scattered Clouds
10:56 AM 55.0 °F 44.1 °F 67% 30.05 in 10.0 mi WNW 4.6 mph - N/A   Scattered Clouds
11:54 AM 57.2 °F 44.6 °F 63% 30.06 in 10.0 mi Calm Calm - N/A   Mostly Cloudy
11:56 AM 57.9 °F 45.0 °F 62% 30.04 in 10.0 mi NNW 3.5 mph - N/A   Mostly Cloudy
12:56 PM 62.1 °F 44.1 °F 52% 30.03 in 10.0 mi Calm Calm - N/A   Mostly Cloudy
1:03 PM 63.0 °F 45.0 °F 52% 30.05 in 10.0 mi North 9.2 mph - N/A   Mostly Cloudy
1:56 PM 62.1 °F 42.1 °F 48% 30.01 in 10.0 mi NNW 6.9 mph - N/A   Mostly Cloudy
2:56 PM 64.9 °F 44.1 °F 47% 30.01 in 10.0 mi North 9.2 mph - N/A   Partly Cloudy
3:56 PM 64.0 °F 44.1 °F 48% 30.00 in 10.0 mi North 11.5 mph - N/A   Mostly Cloudy
4:56 PM 63.0 °F 43.0 °F 48% 30.00 in 10.0 mi NNW 10.4 mph - N/A   Mostly Cloudy
5:56 PM 62.1 °F 43.0 °F 50% 30.01 in 10.0 mi NW 8.1 mph - N/A   Mostly Cloudy
6:56 PM 60.1 °F 43.0 °F 53% 30.02 in 10.0 mi WNW 11.5 mph - N/A   Overcast
7:56 PM 55.9 °F 43.0 °F 62% 30.04 in 10.0 mi WNW 10.4 mph - N/A   Scattered Clouds
8:56 PM 54.0 °F 43.0 °F 66% 30.06 in 10.0 mi WNW 6.9 mph - N/A   Clear
9:56 PM 51.1 °F 43.0 °F 74% 30.06 in 10.0 mi WSW 5.8 mph - N/A   Clear
10:56 PM 50.0 °F 42.1 °F 74% 30.06 in 10.0 mi West 4.6 mph - N/A   Clear
11:56 PM 46.9 °F 41.0 °F 80% 30.06 in 10.0 mi West 3.5 mph - N/A   Clear